Location: Esterri de Aneo
(42.6284°N, 1.1223°E)
Time: 02:41:13
(UTC+00:00)

Cosmos 1825 Rocket - Visible Passes

Search period start: 17 March 2026 00:00
Search period end: 27 March 2026 00:00
Orbit: 598 x 622 km, 82.5° (Epoch: 16 March)

Date Brightness Start Highest point End Pass type
(mag) Time Alt. Az. Time Alt. Az. Time Alt. Az.
17 Mar 5.3 04:51:18 10° N 04:55:22 36° ENE 04:59:23 10° SE visible
17 Mar 5.6 18:59:20 10° SW 19:03:19 32° WNW 19:07:20 10° N visible
18 Mar 4.1 05:05:34 10° N 05:09:56 63° E 05:14:14 10° SSE visible
18 Mar 6.6 19:14:44 10° WSW 19:17:59 20° WNW 19:21:15 10° NNW visible
19 Mar 7.1 03:45:14 10° NE 03:46:10 11° ENE 03:47:07 10° ENE visible
19 Mar 3.5 05:20:02 10° NNW 05:24:24 73° W 05:28:44 10° S visible
19 Mar 7.1 19:30:59 10° W 19:32:43 12° WNW 19:34:28 10° NW visible
20 Mar 6.5 03:57:57 10° NNE 04:00:57 18° ENE 04:03:54 10° ESE visible
21 Mar 5.6 04:11:47 10° NNE 04:15:37 29° ENE 04:19:24 10° SE visible
22 Mar 4.5 04:25:57 10° N 04:30:12 50° ENE 04:34:24 10° SSE visible
22 Mar 6.4 18:34:36 10° SW 18:38:11 24° WNW 18:41:49 10° NNW visible
23 Mar 3.5 04:40:19 10° N 04:44:43 89° E 04:49:02 10° S visible
23 Mar 6.9 18:50:23 10° WSW 18:52:54 15° WNW 18:55:26 10° NW visible
24 Mar 6.7 03:18:43 10° NE 03:21:07 14° ENE 03:23:30 10° ESE visible
24 Mar 3.6 04:54:54 10° NNW 04:59:08 51° W 05:03:19 10° S visible
25 Mar 5.9 03:32:17 10° NNE 03:35:49 24° ENE 03:39:18 10° SE visible
25 Mar 4.3 05:09:43 10° NNW 05:13:29 29° W 05:17:13 10° SSW visible
26 Mar 4.9 03:46:20 10° N 03:50:27 39° ENE 03:54:30 10° SSE visible
